This demonstration page uses our WeatherBlox Daily Observations layout. Learn more.

Left ArrowRight Arrow

38.80484, -77.04692

Hourly Observations for January 18, 2022

Temp ( °F °C ) Dew Point ( °F °C ) Humidity (%) Winds ( mph kmh ) Pressure ( in mb ) Visibility ( mi km ) Precip ( " mm )
12:52 am 00:52 Cloudy 35 1.7 18 -7.8 50 50 WNW 14 22 29.76 1008 10 16 0.00 0.00
1:52 am 01:52 Cloudy 35 1.7 19 -7.2 52 52 NW 17 28 29.79 1009 10 16 0.00 0.00
2:52 am 02:52 Cloudy 35 1.7 19 -7.2 52 52 NW 15 24 29.84 1010 10 16 0.00 0.00
3:52 am 03:52 Cloudy 35 1.7 20 -6.7 54 54 WNW 12 19 29.86 1011 10 16 0.00 0.00
4:52 am 04:52 Cloudy 35 1.7 19 -7.2 52 52 WNW 8 13 29.88 1012 10 16 0.00 0.00
5:52 am 05:52 Mostly Cloudy 35 1.7 19 -7.2 52 52 W 10 17 29.92 1013 10 16 0.00 0.00
6:52 am 06:52 Mostly Cloudy 35 1.7 19 -7.2 52 52 W 8 13 29.96 1014 10 16 0.00 0.00
7:52 am 07:52 Mostly Cloudy 36 2.2 19 -7.2 50 50 W 14 22 29.98 1015 10 16 0.00 0.00
8:52 am 08:52 Mostly Cloudy 37 2.8 20 -6.7 50 50 WNW 13 20 30.02 1017 10 16 0.00 0.00
9:52 am 09:52 Mostly Cloudy 37 2.8 20 -6.7 50 50 W 10 17 30.07 1018 10 16 0.00 0.00
10:52 am 10:52 Mostly Cloudy 37 2.8 20 -6.7 50 50 W 14 22 30.09 1019 10 16 0.00 0.00
11:52 am 11:52 Mostly Cloudy 38 3.3 20 -6.7 48 48 W 12 19 30.10 1019 10 16 0.00 0.00
12:52 pm 12:52 Mostly Cloudy 39 3.9 19 -7.2 45 45 W 17 28 30.11 1020 10 16 0.00 0.00
1:52 pm 13:52 Mostly Cloudy 41 5 19 -7.2 41 41 W 17 28 30.11 1020 10 16 0.00 0.00
2:52 pm 14:52 Partly Cloudy 41 5 18 -7.8 39 39 W 12 19 30.12 1020 10 16 0.00 0.00
3:52 pm 15:52 Sunny 41 5 18 -7.8 39 39 WNW 14 22 30.12 1020 10 16 0.00 0.00
4:52 pm 16:52 Mostly Sunny 40 4.4 17 -8.3 40 40 WNW 9 15 30.15 1021 10 16 0.00 0.00
5:52 pm 17:52 Mostly Clear 37 2.8 18 -7.8 46 46 WNW 6 9 30.17 1022 10 16 0.00 0.00
6:52 pm 18:52 Mostly Clear 37 2.8 18 -7.8 46 46 Calm 30.19 1022 10 16 0.00 0.00
7:52 pm 19:52 Mostly Clear 34 1.1 20 -6.7 56 56 Calm 30.19 1022 10 16 0.00 0.00
8:52 pm 20:52 Mostly Clear 34 1.1 22 -5.6 61 61 Calm 30.20 1023 10 16 0.00 0.00
9:52 pm 21:52 Mostly Clear 31 -0.6 23 -5 72 72 SE 7 11 30.19 1022 10 16 0.00 0.00
10:52 pm 22:52 Mostly Clear 31 -0.6 24 -4.4 76 76 S 6 9 30.21 1023 10 16 0.00 0.00
11:52 pm 23:52 Mostly Clear 31 -0.6 20 -6.7 64 64 SSW 5 7 30.21 1023 10 16 0.00 0.00

Powered by AerisWeather